TimePDT,TemperatureF,Dew PointF,Humidity,Sea Level PressureIn,VisibilityMPH,Wind Direction,Wind SpeedMPH,Gust SpeedMPH,PrecipitationIn,Events,Conditions,WindDirDegrees,DateUTC
12:53 AM,34.0,33.1,96,30.27,10.0,West,6.9,-,N/A,,Partly Cloudy,260,2013-11-01 07:53:00
1:53 AM,30.0,28.9,96,30.30,10.0,WSW,6.9,-,N/A,,Clear,240,2013-11-01 08:53:00
2:53 AM,28.9,28.0,96,30.30,6.0,NNE,3.5,-,N/A,,Clear,20,2013-11-01 09:53:00
3:51 AM,26.6,26.6,100,30.27,1.8,North,4.6,-,N/A,,Clear,350,2013-11-01 10:51:00
3:53 AM,27.0,26.1,96,30.28,1.2,North,4.6,-,N/A,,Clear,350,2013-11-01 10:53:00
4:02 AM,28.0,27.0,96,30.27,0.8,North,4.6,-,N/A,,Clear,10,2013-11-01 11:02:00
4:11 AM,26.1,26.1,100,30.27,1.0,NNW,3.5,-,N/A,,Mist,330,2013-11-01 11:11:00
4:15 AM,26.1,25.0,96,30.27,1.5,Calm,Calm,-,N/A,,Clear,0,2013-11-01 11:15:00
4:18 AM,25.0,25.0,100,30.26,4.0,Calm,Calm,-,N/A,,Clear,0,2013-11-01 11:18:00
4:38 AM,28.0,26.1,92,30.27,7.0,SE,3.5,-,N/A,,Scattered Clouds,140,2013-11-01 11:38:00
4:44 AM,27.0,26.1,96,30.27,2.5,SE,6.9,-,N/A,,Mostly Cloudy,130,2013-11-01 11:44:00
4:46 AM,27.0,26.1,96,30.27,0.8,SE,4.6,-,N/A,,Mist,130,2013-11-01 11:46:00
4:53 AM,27.0,27.0,100,30.30,0.2,South,5.8,-,N/A,Fog,Light Freezing Fog,170,2013-11-01 11:53:00
5:53 AM,26.1,25.0,96,30.32,0.2,WNW,4.6,-,N/A,Fog,Light Freezing Fog,290,2013-11-01 12:53:00
6:10 AM,25.0,24.1,96,30.29,1.8,West,5.8,-,N/A,,Mostly Cloudy,280,2013-11-01 13:10:00
6:13 AM,25.0,24.1,96,30.29,3.0,WNW,5.8,-,N/A,,Mostly Cloudy,290,2013-11-01 13:13:00
6:26 AM,25.0,24.1,96,30.29,9.0,Calm,Calm,-,N/A,,Scattered Clouds,0,2013-11-01 13:26:00
6:53 AM,24.1,23.0,96,30.35,10.0,Calm,Calm,-,N/A,,Mostly Cloudy,0,2013-11-01 13:53:00
7:08 AM,24.1,21.9,91,30.29,10.0,Calm,Calm,-,N/A,,Scattered Clouds,0,2013-11-01 14:08:00
7:49 AM,23.0,21.2,93,30.29,2.5,NW,3.5,-,N/A,,Mostly Cloudy,320,2013-11-01 14:49:00
7:50 AM,23.0,21.2,93,30.29,1.2,Calm,Calm,-,N/A,,Mostly Cloudy,0,2013-11-01 14:50:00
7:53 AM,23.0,21.9,96,30.36,0.2,Calm,Calm,-,N/A,Fog,Light Freezing Fog,0,2013-11-01 14:53:00
8:35 AM,30.0,30.0,100,30.30,1.5,Calm,Calm,-,N/A,,Overcast,0,2013-11-01 15:35:00
8:38 AM,30.9,30.0,96,30.30,4.0,Calm,Calm,-,N/A,,Mostly Cloudy,0,2013-11-01 15:38:00
8:53 AM,32.0,32.0,100,30.35,10.0,Calm,Calm,-,N/A,,Partly Cloudy,0,2013-11-01 15:53:00
9:12 AM,32.0,32.0,100,30.31,1.8,ESE,5.8,-,N/A,,Scattered Clouds,110,2013-11-01 16:12:00
9:14 AM,32.0,32.0,100,30.31,1.0,SE,3.5,-,N/A,,Mist,130,2013-11-01 16:14:00
9:23 AM,33.1,33.1,100,30.31,0.8,East,4.6,-,N/A,,Mist,100,2013-11-01 16:23:00
9:53 AM,35.1,35.1,100,30.35,0.5,East,4.6,-,N/A,Fog,Fog,100,2013-11-01 16:53:00
10:53 AM,35.1,35.1,100,30.36,0.2,Calm,Calm,-,N/A,Fog,Fog,0,2013-11-01 17:53:00
11:23 AM,37.0,36.0,96,30.30,1.5,Calm,Calm,-,N/A,,Overcast,0,2013-11-01 18:23:00
11:30 AM,37.0,37.0,100,30.30,3.0,Calm,Calm,-,N/A,,Overcast,0,2013-11-01 18:30:00
11:46 AM,39.0,37.9,96,30.30,10.0,Calm,Calm,-,N/A,,Overcast,0,2013-11-01 18:46:00
11:53 AM,39.9,37.9,93,30.34,10.0,NE,3.5,-,N/A,,Overcast,50,2013-11-01 18:53:00
12:39 PM,50.0,39.9,68,30.28,10.0,Variable,3.5,-,N/A,,Partly Cloudy,0,2013-11-01 19:39:00
12:53 PM,51.1,39.9,66,30.28,10.0,Calm,Calm,-,N/A,,Clear,0,2013-11-01 19:53:00
1:53 PM,52.0,39.9,63,30.26,10.0,Variable,4.6,-,N/A,,Clear,0,2013-11-01 20:53:00
2:53 PM,54.0,39.9,59,30.22,10.0,SE,4.6,-,N/A,,Clear,130,2013-11-01 21:53:00
3:53 PM,55.0,41.0,59,30.21,10.0,East,5.8,-,N/A,,Clear,90,2013-11-01 22:53:00
4:53 PM,55.0,41.0,59,30.19,10.0,NNE,3.5,-,N/A,,Clear,30,2013-11-01 23:53:00
5:53 PM,46.9,39.0,74,30.19,10.0,NNE,6.9,-,N/A,,Clear,30,2013-11-02 00:53:00
6:53 PM,39.9,37.0,89,30.20,10.0,North,8.1,-,N/A,,Clear,350,2013-11-02 01:53:00
7:53 PM,37.0,34.0,89,30.19,10.0,North,5.8,-,N/A,,Clear,350,2013-11-02 02:53:00
8:53 PM,34.0,33.1,96,30.17,10.0,West,6.9,-,N/A,,Clear,260,2013-11-02 03:53:00
9:53 PM,34.0,33.1,96,30.14,10.0,Calm,Calm,-,N/A,,Clear,0,2013-11-02 04:53:00
10:53 PM,28.9,28.0,96,30.14,9.0,SW,3.5,-,N/A,,Clear,220,2013-11-02 05:53:00
11:53 PM,28.9,28.0,96,30.10,10.0,Calm,Calm,-,N/A,,Clear,0,2013-11-02 06:53:00